CAPE
2135 2034 2089 2027 1506 557 269 388 765 1576 1328 1125 1094 916 662 563 564 558 383 224 193 66 12 20 111 568 449 553 559 452 361 442 257 324 76 4 1 2 3 3 3 3 2
2168 2278 2113 1686 787 284 108 104 1573 1614 1268 1208 982 740 612 561 553 389 205 128 114 96 245 399 456 573 511 567 527 425 310 158 261 249 3 2 1 2 1 1 2 0 2
2176 2175 1640 821 519 300 228 704 1677 1451 1228 990 836 712 621 440 302 368 426 405 398 396 419 452 379 334 406 369 414 366 265 260 121 119 0 2 1 1 2 2 2 3 2
2081 1650 1235 758 632 1023 1646 2022 1817 1366 1127 853 726 719 634 537 517 480 412 401 475 485 455 374 325 412 447 471 353 224 142 22 1 2 1 1 1 2 2 1 2 3 3
1106 1385 1460 1263 1348 1938 2064 2104 1721 1273 1041 899 654 521 465 360 383 425 315 224 170 176 308 357 384 307 189 249 229 132 72 4 1 2 2 2 1 1 1 2 3 3 3
1661 1974 1644 1342 1486 1892 2101 1913 1668 1348 1169 995 795 516 348 196 101 115 295 306 278 196 234 259 186 0 0 0 0 78 73 25 2 1 2 1 2 2 4 4 2 2 0
1568 1860 2094 1525 1356 2201 2034 1822 1775 1502 1398 1159 889 690 544 434 6 11 30 249 265 223 233 184 104 0 0 1 25 0 0 0 3 2 0 1 2 2 2 3 1 0 0
48 1749 1802 1628 1627 2060 2026 1981 1948 1793 1620 1383 1061 926 817 737 116 0 0 60 216 264 200 169 118 2 0 0 85 0 15 1 0 0 7 6 0 0 0 0 0 0 0
0 1226 1456 1352 1483 1747 1829 1899 1923 1748 1627 1475 1254 1161 969 834 144 0 0 3 127 235 256 233 151 78 0 0 12 4 1 4 0 0 0 0 0 0 2 2 1 1 2
269 313 296 653 878 981 902 816 683 806 750 606 613 708 967 874 571 29 0 0 9 51 147 97 10 71 0 0 19 2 0 1 5 1 0 0 0 0 0 1 1 2 3
8 8 98 27 43 68 169 269 295 206 130 96 107 70 69 41 96 10 0 75 40 46 24 80 54 0 0 0 0 55 0 0 1 10 14 12 5 5 1 7 7 3 1
0 2 29 49 73 143 179 191 108 49 64 83 24 0 10 137 57 0 0 0 12 84 110 126 100 4 0 0 0 0 0 0 6 10 11 2 3 4 8 8 10 10 11
0 0 0 0 0 1 1 0 6 1 1 1 3 5 0 0 25 0 0 0 0 19 210 209 163 1 0 0 0 0 0 8 9 28 5 7 0 0 5 8 8 9 14
0 0 0 0 0 0 0 2 3 9 6 16 8 1 2 3 8 38 5 0 0 0 51 31 11 0 0 1 0 0 5 67 16 21 42 31 6 6 4 9 8 5 8
0 0 0 0 0 0 0 1 1 1 0 1 1 2 2 2 32 6 0 0 0 3 2 0 0 0 0 4 5 1 0 2 13 52 106 88 0 3 11 18 29 8 11
0 0 0 0 0 0 0 2 0 0 0 0 2 1 1 0 0 0 0 0 0 0 4 4 5 2 0 0 0 0 0 0 0 0 0 0 0 0 0 2 0 1 2
0 0 0 0 0 0 0 0 0 0 0 0 0 0 0 0 0 0 0 0 1 0 3 4 4 3 3 0 0 0 0 0 0 0 0 0 0 0 0 0 0 0 0
0 0 0 0 0 0 0 1 5 2 1 3 2 0 0 0 0 0 0 0 0 0 4 6 9 3 1 0 0 0 2 1 3 1 1 1 0 2 2 2 4 0 14
0 0 0 0 0 0 0 0 4 6 3 4 3 2 2 0 0 0 2 0 0 0 1 26 43 40 0 0 2 2 2 3 1 0 0 1 1 1 1 1 0 0 1
0 0 0 0 0 0 0 0 0 17 17 0 1 1 1 6 2 1 1 3 3 1 1 1 1 0 0 0 0 0 1 0 0 0 0 0 0 0 1 0 1 0 0
0 0 0 0 0 0 0 0 0 7 30 29 5 0 0 2 1 0 1 1 1 1 0 0 0 0 0 0 0 0 0 0 0 0 0 1 0 1 1 1 2 3 3
0 0 0 3 1 0 0 0 0 26 73 16 7 2 1 2 1 1 1 1 0 0 1 0 0 0 0 0 0 0 1 0 0 1 1 1 1 2 2 3 4 4 0
0 0 5 7 4 0 3 24 66 117 69 47 6 2 1 0 0 0 0 0 0 0 0 0 0 0 0 0 0 0 0 0 0 0 2 4 2 0 1 0 1 0 0
2 0 4 6 14 1 1 0 2 52 97 107 9 2 2 1 1 0 0 0 0 0 0 0 0 0 0 0 0 0 0 0 0 0 0 0 0 0 0 0 0 0 0
7 13 7 1 0 1 3 2 2 4 34 64 10 0 0 0 2 2 2 1 4 0 0 0 0 0 0 0 0 0 0 0 0 0 0 0 0 0 0 0 0 0 0
10 20 17 13 6 3 1 2 1 1 4 31 11 2 0 0 0 0 0 0 0 0 0 0 0 0 0 0 0 0 0 0 0 0 0 0 0 0 0 0 0 0 0
CIN
-241 -195 -156 -116 -167 -277 -291 -238 -116 -41 -47 -60 -31 -25 -24 -18 -22 -15 -22 -36 -36 -52 -123 -89 -52 0 0 0 0 -1 -3 -2 0 0 -15 0 -1 0 0 0 0 0 0
-240 -182 -144 -163 -277 -332 -385 -353 -38 -28 -66 -56 -62 -46 -46 -16 -12 -16 -27 -39 -38 -40 -25 -3 0 0 0 0 0 0 -1 -14 -3 0 0 0 0 0 0 0 0 0 0
-250 -202 -223 -308 -316 -346 -328 -199 -47 -70 -77 -104 -92 -81 -57 -50 -34 -14 -7 -10 -10 -3 0 0 0 -1 0 -1 0 0 -4 -4 -17 -13 0 0 0 0 0 0 0 0 0
-276 -268 -300 -336 -290 -197 -101 -36 -47 -96 -116 -137 -135 -90 -68 -53 -22 -9 -12 -5 -1 0 -1 -8 -1 0 -1 0 -2 -27 -46 -89 -1 0 0 0 0 0 0 0 0 0 0
-269 -322 -242 -277 -208 -73 -51 -26 -51 -103 -121 -126 -142 -148 -125 -98 -75 -42 -47 -30 -29 -16 -5 -1 0 -4 -29 -3 -4 -62 -112 -121 0 0 0 0 0 0 0 0 0 0 0
-76 -29 -190 -275 -179 -93 -49 -45 -61 -79 -96 -105 -81 -115 -167 -159 -163 -164 -59 -35 -45 -9 -2 -6 -7 -1 0 0 0 -55 -90 -164 0 0 0 0 0 0 0 0 0 0 0
-28 -29 -11 -218 -163 -27 -22 -38 -42 -42 -44 -70 -75 -67 -77 -93 -40 -168 -188 -42 -7 -28 -11 -12 -27 0 0 -6 -104 0 0 0 -69 0 0 0 0 0 0 0 0 0 0
-151 -1 -5 -126 -105 -7 -7 -10 -21 -7 -7 -8 -20 -26 -18 -25 -151 0 0 -103 -16 -1 -11 -27 -31 -8 0 0 -37 -2 -80 0 0 0 0 0 0 0 0 0 0 0 0
0 0 -22 -82 -87 -4 0 0 0 0 0 -1 -2 -4 -11 -15 -134 0 0 -15 -38 -11 -4 -8 -7 -29 0 0 -15 0 -2 0 0 0 0 0 0 0 0 0 0 0 0
-34 -102 -168 -187 -124 -60 -87 -103 -86 -90 -43 -59 -60 -36 -1 -10 -41 -52 0 0 -44 -70 -23 -60 -69 -35 0 0 -4 -1 0 0 0 0 0 0 0 0 0 0 0 0 0
-122 -85 -406 -397 -418 -368 -306 -228 -188 -187 -233 -231 -108 -187 -110 -136 -81 -39 0 -36 -53 -48 -52 -32 -64 0 0 0 0 -6 0 -1 0 0 -8 0 0 0 0 0 0 0 0
0 -158 -286 -345 -327 -281 -200 -186 -253 -267 -175 -178 -165 0 -46 -68 -70 0 0 0 -11 -15 -18 -12 -38 -28 0 0 0 0 0 0 -1 -1 -3 0 0 -1 0 0 0 0 -1
0 0 0 0 0 0 0 0 -385 -37 0 -23 -12 -4 0 0 -75 -1 0 0 0 -2 -2 -14 -35 -32 0 0 0 0 0 -4 -1 -1 -1 -24 -1 0 0 0 0 0 0
0 0 0 0 0 0 0 0 0 0 0 0 0 0 0 0 -6 -58 -12 0 0 0 -26 -82 -92 0 0 -14 0 0 -51 -3 -36 -27 -4 -2 -6 -31 -50 -22 -11 0 -48
0 0 0 0 0 0 0 0 0 0 0 0 0 0 0 0 -20 -42 0 0 0 0 0 0 0 0 0 -122 -102 0 0 -38 -39 -18 -2 0 -18 -45 -29 -20 -10 -40 -19
0 0 0 0 0 0 0 0 0 0 0 0 0 0 0 0 0 0 0 0 0 0 0 -6 -35 -35 0 -41 0 0 0 0 0 0 0 0 -6 0 -4 -16 -19 0 -45
0 0 0 0 0 0 -1 -1 -1 -1 0 0 0 0 0 0 0 0 0 0 0 0 0 0 0 0 0 0 0 0 0 0 0 0 0 0 0 0 0 0 0 0 0
0 0 0 0 0 0 0 0 0 0 0 0 0 0 0 0 0 0 0 0 0 0 0 -18 -8 -4 -8 0 0 0 0 0 0 0 0 0 0 0 0 0 -25 0 -25
0 0 0 0 0 0 0 0 0 -3 0 0 0 0 0 0 0 0 0 0 0 0 0 -3 -2 0 0 0 0 0 0 0 0 0 0 0 -6 -7 0 -11 0 0 0
0 0 0 0 0 0 0 0 0 -8 -3 0 0 -1 0 0 0 0 0 0 0 0 0 0 0 0 0 0 0 0 0 0 0 0 0 0 0 0 0 0 0 0 0
0 0 0 0 0 0 0 0 0 -9 -1 -2 0 0 0 0 0 0 0 0 0 0 0 0 0 0 0 0 0 0 0 0 0 0 0 0 0 0 0 0 0 0 -1
0 0 0 -1 0 0 0 0 0 -8 0 -11 -13 0 0 0 0 0 0 0 0 0 0 0 0 0 0 0 0 0 0 0 0 0 -1 -1 -1 -1 -1 0 0 0 0
0 -2 -1 -1 0 0 0 -2 -4 -3 -7 -8 -46 0 0 0 0 0 0 0 0 0 0 0 0 0 0 0 0 0 0 0 0 0 0 0 -1 -1 -1 -1 -1 0 0
-11 -4 0 0 0 0 0 0 0 -24 -9 -2 -38 0 0 0 0 0 0 0 0 0 0 0 0 0 0 0 0 0 0 0 0 0 0 0 0 0 0 0 0 0 0
-38 -23 -26 0 0 0 0 0 0 -2 -38 -27 -50 -8 0 0 0 0 0 0 0 0 0 0 0 0 0 0 0 0 0 0 0 0 0 0 0 0 0 0 0 0 0
-11 -8 -7 -11 -8 -14 -2 -1 0 0 -12 -26 -53 -13 0 0 0 0 0 0 0 0 0 0 0 0 0 0 0 0 0 0 0 0 0 0 0 0 0 0 0 0 0
Wind_Speed
9 9 9 8 10 17 15 14 12 12 13 12 11 9 9 9 11 12 11 7 7 4 1 2 6 9 8 12 16 16 18 17 19 19 17 14 12 11 11 11 12 14 15
9 7 7 4 7 14 15 17 12 11 11 11 11 10 10 10 11 10 11 8 6 3 2 2 3 3 4 9 12 14 16 16 18 19 16 15 14 9 10 11 13 13 14
11 9 5 1 1 7 11 10 8 9 10 10 10 9 9 9 9 10 9 7 6 5 4 4 2 6 9 11 12 15 15 16 16 17 16 16 16 9 8 10 10 10 12
13 10 4 4 3 1 4 6 7 7 8 9 8 9 9 7 7 6 7 6 5 3 4 4 1 2 7 13 15 15 15 15 14 13 13 13 12 10 8 5 7 10 12
21 4 5 6 5 6 5 4 5 7 8 8 7 7 7 7 5 5 6 5 4 3 3 2 3 6 9 11 14 14 14 13 13 12 12 11 6 4 2 5 7 7 10
23 27 11 8 9 9 7 5 5 5 6 7 6 6 6 5 5 3 4 4 4 3 2 5 4 6 12 13 12 12 11 10 11 12 11 9 6 6 4 3 7 10 11
27 28 33 14 15 15 13 8 7 4 6 7 5 6 5 4 4 4 2 4 8 8 6 5 2 3 6 9 9 10 10 10 12 10 10 9 8 6 5 4 4 7 11
36 37 35 21 18 20 18 12 10 8 9 10 8 7 7 6 4 4 3 6 5 7 8 7 6 4 3 5 6 8 8 9 12 12 12 11 9 5 3 5 3 7 10
47 39 31 23 20 23 21 18 15 14 13 12 11 11 9 9 7 5 7 8 10 6 9 9 8 9 6 4 6 6 8 10 10 12 13 12 12 8 4 5 5 5 10
23 23 19 16 19 20 19 19 19 17 17 17 16 16 15 14 12 10 9 10 13 13 12 13 12 11 8 6 7 8 7 9 7 7 9 11 10 9 6 7 7 8 11
6 9 11 18 18 19 19 19 19 21 19 20 20 19 17 17 17 14 13 15 15 18 15 17 16 12 11 9 9 11 11 8 7 7 6 7 8 8 7 8 9 9 10
9 9 18 20 21 22 23 23 25 25 27 25 24 22 21 22 21 18 17 19 21 23 22 21 20 14 13 11 11 15 12 10 9 8 7 7 6 5 7 7 9 9 11
12 13 16 18 21 22 24 26 27 26 30 30 29 28 27 28 26 21 18 22 26 30 29 26 22 17 15 13 12 13 12 13 14 13 12 12 9 7 7 7 7 8 9
14 16 18 20 22 25 26 28 29 28 28 29 31 30 29 29 30 24 26 23 16 18 30 27 23 19 18 17 15 16 16 16 13 15 15 13 11 10 9 7 8 7 10
17 18 20 22 24 26 27 29 28 27 28 32 33 33 30 29 27 27 22 16 7 5 15 21 22 21 21 20 19 18 18 18 18 19 18 17 15 14 14 12 13 11 13
21 22 23 24 25 25 26 27 25 26 25 27 31 29 29 25 32 32 13 7 4 4 6 16 18 20 21 22 23 22 21 20 21 19 18 21 18 18 17 16 16 16 16
22 22 23 24 24 25 26 27 28 27 25 25 27 28 27 29 30 27 19 13 8 4 8 16 22 19 18 24 27 25 25 19 17 18 20 22 20 16 17 19 16 15 15
25 24 24 24 25 24 25 26 26 28 28 27 27 29 29 28 26 20 14 13 12 10 17 17 15 17 19 19 21 25 21 19 21 19 20 20 22 16 14 14 13 13 14
26 25 26 26 25 24 24 25 26 26 27 27 27 27 26 26 24 19 14 17 16 12 15 19 18 19 17 21 23 22 20 17 13 10 12 7 7 7 10 13 16 16 13
27 26 26 26 26 25 24 25 24 25 25 25 26 27 26 23 23 21 19 19 19 17 16 16 15 13 12 12 9 9 3 5 4 7 6 7 8 10 12 12 10 10 10
26 27 28 27 27 26 23 23 23 24 24 24 24 25 25 23 21 20 19 17 11 9 8 7 8 8 9 10 9 5 6 6 7 7 7 8 8 9 9 9 9 10 10
26 25 26 27 26 25 23 23 22 21 21 20 23 23 21 19 18 17 15 13 11 11 10 9 9 10 9 10 9 8 10 11 7 7 7 8 9 9 9 10 11 12 12
26 27 27 26 23 23 22 20 19 17 16 18 20 20 18 17 17 15 14 12 12 12 12 12 10 11 11 9 9 9 8 9 8 9 9 9 10 10 11 11 10 11 12
24 26 25 22 20 20 20 20 17 14 14 15 16 14 13 14 14 14 14 12 12 12 13 13 13 12 12 11 10 10 10 10 11 11 10 10 10 10 11 11 11 10 11
23 24 23 22 21 20 20 19 17 13 12 12 11 11 11 12 13 13 12 11 12 12 12 12 12 12 11 11 11 11 11 11 11 12 11 11 11 11 10 10 10 11 12
22 22 21 21 21 20 19 18 16 12 10 10 10 10 10 11 11 12 11 11 11 11 11 12 12 12 12 12 12 12 12 13 12 13 12 12 11 11 11 12 12 14 14
Wind_Direction
172 160 150 138 132 148 143 134 124 113 119 111 128 108 103 111 124 139 140 124 140 134 327 287 300 302 309 304 298 300 299 302 302 308 315 322 323 330 335 333 337 327 325
171 167 156 126 117 139 142 145 121 99 92 89 91 91 80 89 116 119 126 120 117 96 88 333 318 320 310 311 308 307 304 305 305 306 312 315 317 330 330 328 328 318 322
168 164 166 171 61 116 131 128 90 71 71 64 65 71 70 76 102 123 121 110 109 115 100 130 112 323 313 312 309 307 308 307 308 308 309 309 307 322 338 326 335 345 331
169 170 206 239 277 40 57 105 97 56 50 44 62 88 96 71 58 72 95 95 85 59 114 128 77 344 320 309 307 309 312 313 315 312 311 309 306 311 333 9 1 337 320
259 205 261 258 278 308 339 20 26 22 24 22 39 56 69 97 53 22 13 26 63 55 6 38 351 328 324 319 313 313 315 320 322 319 315 312 308 315 53 338 332 356 337
278 273 277 263 276 293 312 343 360 9 22 22 34 29 37 65 55 55 40 12 8 12 11 342 355 332 317 314 315 317 320 323 322 320 320 314 300 287 290 311 319 316 326
284 279 255 263 272 283 296 314 329 352 355 2 24 8 11 34 17 357 137 350 327 322 325 333 2 8 340 326 320 317 320 324 321 324 319 318 308 296 286 297 312 318 318
284 258 250 262 270 280 292 304 312 322 328 333 340 339 338 341 346 333 313 308 316 314 314 316 318 336 345 350 342 325 324 320 317 320 318 320 316 313 275 297 295 314 319
267 244 248 258 272 279 288 299 309 315 317 320 323 320 315 317 316 305 311 301 296 281 297 299 298 305 312 323 333 329 322 316 320 313 315 317 317 322 318 313 304 307 311
223 234 247 261 274 283 293 303 309 316 315 317 316 314 310 303 302 295 286 290 290 285 280 285 282 288 293 289 307 316 321 315 322 319 312 311 314 316 313 309 303 297 305
228 240 267 270 278 291 302 309 313 312 313 313 311 310 305 301 298 287 277 276 274 280 268 274 275 261 274 271 282 298 304 313 316 323 320 318 318 316 312 309 307 303 300
299 285 263 276 289 298 304 310 309 310 308 310 309 309 308 306 301 291 274 264 264 263 264 267 268 259 254 260 268 287 292 298 305 306 308 311 317 318 309 307 312 311 309
278 298 294 302 305 310 312 314 314 314 308 307 307 307 306 306 306 302 286 280 271 261 257 260 259 256 254 259 262 274 275 284 288 287 290 294 298 304 307 307 313 317 321
306 306 310 315 321 324 324 322 320 318 316 310 308 305 306 307 308 315 319 314 287 252 251 253 258 257 261 268 269 271 273 276 276 281 283 285 286 287 289 297 305 309 308
333 335 334 336 332 334 333 327 324 323 320 313 308 305 305 304 309 312 325 348 17 155 244 253 258 259 261 266 270 270 271 274 279 284 274 271 272 276 279 285 291 296 301
328 331 332 332 333 336 338 337 336 331 330 327 319 319 310 305 298 303 317 336 356 111 255 261 260 262 266 270 273 274 272 272 279 276 267 272 269 272 277 281 287 288 294
329 331 332 334 337 340 337 338 339 340 343 341 334 333 326 311 301 300 307 311 304 253 266 272 269 270 277 279 275 277 277 270 272 271 270 268 268 271 281 281 279 287 299
326 328 327 328 329 332 335 338 340 340 340 342 342 338 333 326 314 307 313 315 308 289 290 286 279 278 283 292 288 281 278 277 275 267 273 273 269 274 278 279 288 296 304
320 323 323 323 327 328 329 332 334 334 336 335 339 342 342 339 338 326 307 304 299 293 289 288 288 291 291 289 285 285 283 269 286 270 281 292 289 294 300 298 299 303 306
323 325 325 324 323 325 327 327 328 330 332 334 331 331 336 343 341 342 331 311 299 300 296 300 302 316 320 326 332 309 311 339 315 309 326 328 316 307 305 305 318 325 330
329 327 327 325 325 322 325 325 325 325 329 331 331 330 329 339 344 344 343 346 358 0 348 354 347 0 349 13 23 346 1 16 350 357 2 353 349 337 335 339 345 346 344
336 335 332 328 325 326 326 327 324 328 330 336 334 335 339 343 350 355 358 353 7 4 353 7 18 19 19 24 36 15 35 53 33 11 5 357 351 344 344 340 337 338 343
339 334 330 329 332 332 331 332 333 335 334 338 342 346 360 14 18 23 23 20 24 19 27 32 31 31 35 25 19 23 22 9 7 13 4 358 349 343 344 347 351 351 351
342 338 336 339 344 343 341 338 340 342 345 344 348 353 6 9 14 26 21 18 14 18 26 29 29 29 35 33 21 12 8 5 7 4 359 355 358 359 351 352 5 15 13
349 347 347 346 345 346 345 344 346 352 350 357 9 17 16 16 20 19 15 12 14 10 1 358 9 13 14 11 9 8 11 7 4 18 7 10 10 22 27 20 9 2 354
360 1 3 4 3 0 359 358 1 13 25 19 14 15 12 13 9 7 5 2 2 2 2 10 19 23 19 16 19 36 33 38 32 37 34 37 34 21 11 3 358 351 349